Regional Weather Roundup
Issued by NWS

Home | Current Version | Previous Version | Graphics & Text | Print | Product List | Glossary On
Versions: 1 2 3 4 5 6 7 8 9 10 11 12 13 14 15 16 17 18 19 20 21 22 23 24 25 26 27 28 29 30 31 32 33 34 35 36 37 38 39 40 41 42 43 44 45 46 47 48 49 50
484
ASUS43 KLSX 150007
RWRMO

WEATHER SUMMARY FOR MISSOURI
NATIONAL WEATHER SERVICE SPRINGFIELD MO
600 PM CST THU DEC 14 2017

NOTE: "FAIR" INDICATES FEW OR NO CLOUDS BELOW 12,000 FEET WITH NO
       SIGNIFICANT WEATHER AND/OR OBSTRUCTIONS TO VISIBILITY.
       CURRENT SKY AND/OR WEATHER CONDITIONS ARE NOT AVAILABLE FOR
       CHILLICOTHE AND FARMINGTON.

MOZ001>031-035>038-043-044-053-054-150100-
...NORTHERN AND WESTERN MISSOURI...

CITY           SKY/WX    TMP DP  RH WIND       PRES   REMARKS
KANSAS CTY INT CLOUDY    37  24  59 CALM      30.09R
6HR MIN TEMP:  37; 6HR MAX TEMP:  41;

KANSAS C DTWN  CLOUDY    41  24  51 SW3       30.09R
6HR MIN TEMP:  40; 6HR MAX TEMP:  42;

LEE`S SUMMIT   CLOUDY    38  23  55 CALM      30.09R
6HR MIN TEMP:  38; 6HR MAX TEMP:  40; 6HR PCP: TRACE;

ST JOSEPH      CLOUDY    39  26  59 N5        30.10R
6HR MIN TEMP:  38; 6HR MAX TEMP:  43;

CHILLICOTHE      N/A     34  23  64 CALM      30.12R
6HR MIN TEMP:  33; 6HR MAX TEMP:  36;

KIRKSVILLE     CLOUDY    31  25  78 CALM      30.10R
6HR MIN TEMP:  28; 6HR MAX TEMP:  32;


$$
MOZ066>068-077>081-088>096-101>105-150100-
...SOUTHWEST MISSOURI...

CITY           SKY/WX    TMP DP  RH WIND       PRES   REMARKS
SPRINGFIELD    CLOUDY    36  25  64 N3        30.08R
6HR MIN TEMP:  36; 6HR MAX TEMP:  39;

JOPLIN         PTCLDY    35  27  72 W6        30.11R
6HR MIN TEMP:  35; 6HR MAX TEMP:  41;

BRANSON        CLOUDY    37  23  56 NW9       30.09R

$$
MOZ032>034-039>042-045>050-055>058-069>072-150100-
...CENTRAL MISSOURI...

CITY           SKY/WX    TMP DP  RH WIND       PRES   REMARKS
COLUMBIA       CLOUDY    32  21  64 NE3       30.10R
6HR MIN TEMP:  31; 6HR MAX TEMP:  33;

JEFFERSON CITY CLOUDY    34  21  59 CALM      30.12R
6HR MIN TEMP:  34; 6HR MAX TEMP:  35;

ROLLA          CLOUDY    32  22  66 NW6       30.09R WCI  26
6HR MIN TEMP:  32; 6HR MAX TEMP:  35;

SEDALIA        CLOUDY    36  25  64 CALM      30.11S
6HR MIN TEMP:  35; 6HR MAX TEMP:  37;

WHITEMAN AFB   CLOUDY    34  23  64 SE3       30.06R
WARRENSBURG    CLOUDY    34  27  75 CALM      30.10S
OSAGE BEACH    CLOUDY    34  22  61 N3        30.12R

$$
MOZ051-052-059>065-150100-
...EAST CENTRAL MISSOURI...

CITY           SKY/WX    TMP DP  RH WIND       PRES   REMARKS
ST LOUIS INTL  CLOUDY    31  20  63 NW5       30.12R WCI  26
6HR MIN TEMP:  31; 6HR MAX TEMP:  32;

SPIRIT OF STL  CLOUDY    32  21  64 CALM      30.11R
6HR MIN TEMP:  32; 6HR MAX TEMP:  33;

ST CHARLES     CLOUDY    31  19  61 NW3       30.12R
6HR MIN TEMP:  31; 6HR MAX TEMP:  32;


$$
MOZ072>076-082>087-097>100-106>115-150100-
...SOUTH CENTRAL AND SOUTHEAST MISSOURI...

CITY           SKY/WX    TMP DP  RH WIND       PRES   REMARKS
CAPE GIRARDEAU CLOUDY    33  21  61 NE6       30.10R WCI  28
6HR MIN TEMP:  33; 6HR MAX TEMP:  35;

FARMINGTON     CLOUDY    31  22  69 N3        30.09R
6HR MIN TEMP:  31; 6HR MAX TEMP:  33;

POPLAR BLUFF   CLOUDY    35  25  66 E3        30.10R
6HR MIN TEMP:  34; 6HR MAX TEMP:  44;

WEST PLAINS    CLOUDY    36  21  54 N9        30.09R WCI  29
6HR MIN TEMP:  36; 6HR MAX TEMP:  44;


$$



USA.gov is the U.S. government's official web portal to all federal, state and local government web resources and services.